| time (UTC) | temp C | wind direction | speed KPH | gust KPH | rain 1hr cm | rain 24hr cm | rain mn cm | humidity % | barometer mb |
| 20260504040331 | 10 | 248 | 0.0 | 1.6 | 0.00 | 0.30 | 0.00 | 81 | 960.7 |
| 20260504033330 | 10 | 248 | 0.0 | 1.6 | 0.00 | 0.30 | 0.00 | 81 | 960.8 |
| 20260504030331 | 10 | 248 | 0.0 | 0.0 | 0.00 | 0.30 | 0.00 | 80 | 960.7 |
| 20260504023330 | 10 | 248 | 0.0 | 0.0 | 0.00 | 0.30 | 0.00 | 78 | 960.8 |
| 20260504020330 | 10 | 68 | 0.0 | 1.6 | 0.00 | 0.30 | 0.00 | 78 | 961.0 |
| 20260504013329 | 10 | 68 | 1.6 | 1.6 | 0.00 | 0.30 | 0.00 | 78 | 960.8 |
| 20260504010330 | 10 | 68 | 0.0 | 0.0 | 0.00 | 0.30 | 0.00 | 77 | 960.9 |
| 20260504003331 | 11 | 90 | 0.0 | 0.0 | 0.00 | 0.30 | 0.00 | 73 | 960.9 |
| 20260504000331 | 12 | 90 | 0.0 | 0.0 | 0.00 | 0.30 | 0.00 | 72 | 960.9 |
| 20260503233330 | 12 | 68 | 0.0 | 0.0 | 0.00 | 0.30 | 0.00 | 70 | 960.7 |
| 20260503230333 | 13 | 68 | 0.0 | 3.2 | 0.00 | 0.30 | 0.00 | 67 | 960.9 |
| 20260503223330 | 13 | 338 | 0.0 | 0.0 | 0.00 | 0.30 | 0.00 | 66 | 960.9 |
| 20260503220330 | 13 | 338 | 0.0 | 0.0 | 0.00 | 0.30 | 0.00 | 67 | 961.0 |
| 20260503213330 | 13 | 338 | 0.0 | 0.0 | 0.00 | 0.30 | 0.30 | 65 | 961.1 |
| 20260503210330 | 13 | 338 | 0.0 | 0.0 | 0.00 | 0.30 | 0.30 | 65 | 960.9 |
| 20260503203330 | 13 | 65 | 1.6 | 3.2 | 0.00 | 0.30 | 0.30 | 63 | 961.0 |
| 20260503200331 | 14 | 68 | 0.0 | 0.0 | 0.00 | 0.30 | 0.30 | 60 | 961.0 |
| 20260503193332 | 15 | 248 | 0.0 | 3.2 | 0.00 | 0.30 | 0.30 | 56 | 961.0 |
| 20260503190331 | 16 | 248 | 1.6 | 3.2 | 0.00 | 0.30 | 0.30 | 53 | 961.0 |
| 20260503183330 | 16 | 262 | 4.8 | 9.7 | 0.00 | 0.30 | 0.30 | 49 | 960.9 |
| 20260503180330 | 17 | 237 | 3.2 | 4.8 | 0.00 | 0.30 | 0.30 | 48 | 960.8 |
| 20260503173330 | 17 | 248 | 3.2 | 4.8 | 0.00 | 0.30 | 0.30 | 46 | 961.0 |
| 20260503170329 | 18 | 253 | 8.0 | 14.5 | 0.00 | 0.30 | 0.30 | 44 | 960.9 |
| 20260503150330 | 22 | 270 | 11.3 | 24.1 | 0.00 | 0.30 | 0.30 | 40 | 959.6 |
| 20260503130331 | 22 | 248 | 9.7 | 14.5 | 0.00 | 0.30 | 0.30 | 42 | 960.2 |
| 20260503110330 | 21 | 68 | 0.0 | 0.0 | 0.00 | 0.30 | 0.30 | 62 | 960.8 |
| 20260503090329 | 16 | 68 | 3.2 | 8.0 | 0.00 | 0.30 | 0.30 | 83 | 961.8 |
| 20260503080330 | 13 | 45 | 3.2 | 4.8 | 0.03 | 0.30 | 0.30 | 96 | 962.3 |
| 20260503070330 | 12 | 68 | 0.0 | 0.0 | 0.20 | 0.28 | 0.28 | 99 | 962.4 |
| 20260503060330 | 13 | 45 | 0.0 | 1.6 | 0.03 | 0.05 | 0.05 | 97 | 962.1 |
| 20260503053329 | 12 | 279 | 0.0 | 1.6 | 0.05 | 0.05 | 0.05 | 96 | 961.9 |
| 20260503050329 | 12 | 84 | 8.0 | 12.9 | 0.03 | 0.03 | 0.03 | 89 | 961.4 |
| 20260503043331 | 14 | 225 | 1.6 | 1.6 | 0.00 | 0.00 | 0.00 | 63 | 961.7 |